Location: Jetmore Oil Field
(38.1181°N, 99.9337°W)
Time: 09:18:30
(UTC+00:00)

Lacrosse 5 rocket - Pass Details

Date: 17 February 2020
Orbit: 460 x 637 km, 57.0° (Epoch: 09 April)

Event Time Altitude Azimuth Distance (km) Brightness Sun altitude
Rises 02:00:34 0° 283° (WNW) 2,829 6.4 -20.6°
Reaches altitude 10° 02:04:16 10° 315° (NW) 1,968 4.7 -21.3°
Maximum altitude 02:06:00 12° 338° (NNW) 1,856 4.3 -21.6°
Drops below altitude 10° 02:07:46 10° 0° (N) 1,998 4.2 -22.0°
Enters shadow 02:08:52 - 12° (NNE) 2,202 4.3 -22.2°
